Location: El Loro
(10.0291°N, 66.9731°W)
Time: 23:53:34
(UTC+00:00)

Daily predictions for brighter satellites

Satellite Brightness Start Highest point End
(mag) Time Altitude Azimuth Time Altitude Azimuth Time Altitude Azimuth
CORIOLIS 4.4 22:27:08 10° S 22:32:34 80° WSW 22:37:59 10° NNW
Cosmos 1908 Rocket 4.1 22:30:29 10° SSE 22:34:26 34° E 22:38:20 10° NNE
Spot 1 3.9 22:31:55 10° NNE 22:35:58 85° ESE 22:40:04 10° S
Cosmos 1766 3.2 22:33:10 10° S 22:36:59 60° E 22:40:49 10° NNE
Cosmos 1634 Rocket 4.0 22:33:01 10° N 22:39:12 86° E 22:45:28 10° S
ASTEX 1 3.4 22:35:31 10° N 22:40:31 78° E 22:45:30 10° S
Cosmos 2263 Rocket 3.9 22:38:38 10° NE 22:40:53 12° ENE 22:43:08 10° E
Cosmos 2333 Rocket 3.6 22:38:25 10° SE 22:42:13 18° ESE 22:46:01 10° ENE
Atlas 2A Centaur Rocket 4.1 22:37:50 10° SSW 22:42:23 44° SE 23:01:52 10° ENE
USA 290 3.3 22:39:57 10° SSE 22:42:38 24° ESE 22:45:19 10° NE
Ariane H10-3 4.4 22:29:19 10° W 22:43:01 29° SSW 22:46:52 10° SE
DNEPR-1 R/B 3.8 22:40:43 10° SSW 22:44:47 70° WNW 22:49:11 10° NNE
Cosmos 2219 3.2 22:41:29 10° N 22:47:12 74° ENE 22:52:54 10° SSE
Okean 2 3.3 22:43:40 10° N 22:47:46 77° E 22:51:52 10° S
YAOGAN 1 4.2 22:45:50 10° ESE 22:48:03 14° ENE 22:50:15 10° NE
GPS 2-04 Rocket1 4.5 22:45:31 10° W 22:48:17 24° SW 22:51:06 10° SSE
Meteor 1-12 Rocket 4.3 22:42:27 10° S 22:48:20 72° E 22:54:18 10° N
Cosmos 2360 Rocket 2.6 22:44:40 10° S 22:49:58 42° ESE 22:55:14 10° NE
SL-14 R/B 4.1 22:46:28 10° NNE 22:50:00 30° E 22:53:34 10° SSE
Lacrosse 4 Rocket 1.6 22:47:42 10° SSW 22:51:40 69° WNW 22:55:41 10° NNE
Okean O Rocket 3.4 22:52:51 12° ENE 22:52:51 12° ENE 22:54:30 10° NE
Atlas Centaur 2 3.9 22:53:43 10° SSE 22:55:55 13° SE 22:58:13 10° ESE
Cosmos 1726 3.7 22:52:42 10° SSW 22:56:06 39° W 22:59:30 10° NNW
SWIFT 2.3 22:52:49 10° WSW 22:57:02 84° NNW 23:00:25 15° ENE
ARGOS 4.3 22:52:02 10° S 22:57:09 47° WSW 23:02:17 10° NNW
Cosmos 968 Rocket 4.3 22:52:31 10° SSW 22:57:39 56° WNW 23:02:47 10° N
H-2A R/B 2.7 22:54:57 10° NW 22:58:13 17° N 22:59:42 12° NE
PSLV R/B 4.2 22:55:35 10° SE 22:59:04 37° ENE 23:02:28 10° N
IRIDIUM 106 4.2 22:57:37 10° S 23:02:49 77° E 23:08:00 10° N
ARIANE 5 R/B 2.7 23:01:56 10° SW 23:02:51 12° SSW 23:03:38 10° S
Cosmos 2082 3.9 22:57:39 10° N 23:03:08 47° ENE 23:08:34 10° SSE
Cosmos 1470 3.0 23:00:08 10° SSE 23:03:50 45° E 23:07:30 10° NNE
Cosmos 1674 Rocket 3.9 23:00:22 10° NNE 23:04:33 41° E 23:08:44 10° SSE
CZ-3C R/B 3.1 22:57:55 10° WNW 23:05:16 26° NNW 23:07:37 12° NE
CZ-4 R/B 4.3 23:01:16 10° SSE 23:05:20 65° ENE 23:09:24 10° N
Aureole 3 Rocket 3.8 22:59:54 10° N 23:06:24 51° E 23:11:02 10° SSE
ARIANE 5 R/B 3.1 23:04:23 10° SW 23:06:57 23° SSE 23:10:04 15° ESE
Cosmos 2026 Rocket 4.2 23:04:29 10° SSE 23:10:14 44° E 23:15:55 10° NNE
Hubble Space Telescope 2.7 23:08:39 10° NNW 23:11:11 16° NNE 23:12:21 14° NE
Cosmos 540 Rocket 3.4 23:06:16 10° N 23:11:21 85° ENE 23:16:28 10° SSE
ARIANE 5 R/B 3.5 23:10:59 10° SW 23:13:04 21° SSE 23:15:28 15° SE
Meteor 1-15 Rocket 4.4 23:08:17 10° S 23:13:53 74° W 23:19:26 10° N
Centaur Rocket 4.4 23:13:26 10° W 23:17:36 62° N 23:25:29 20° ENE
Cosmos 2322 Rocket 3.1 23:13:30 10° SSW 23:18:59 52° WNW 23:24:31 10° N
Cosmos 2333 4.4 23:14:10 10° S 23:19:39 46° ESE 23:25:08 10° NNE
GPS 2-14 Rocket1 2.9 23:16:02 10° WNW 23:19:40 49° NNE 23:20:46 36° ENE
CZ-4B R/B 3.2 23:18:54 10° SSE 23:24:00 51° ENE 23:29:11 10° N
COSMOS 2455 2.8 23:18:15 10° S 23:24:06 57° ESE 23:29:58 10° NNE
Cosmos 1503 Rocket 4.2 23:24:08 10° S 23:29:04 46° E 23:31:37 26° NE
Cosmos 1378 Rocket 3.5 23:26:32 10° N 23:30:51 82° W 23:35:08 10° S
Cosmos 2227 Rocket 4.4 23:28:17 10° NW 23:32:54 26° WSW 23:37:32 10° SSW
COBE Rocket 3.8 23:30:10 10° SSE 23:35:12 87° ENE 23:40:04 10° N
Aureole 1 Rocket 4.5 23:28:42 10° S 23:36:58 67° ESE 23:44:20 10° NNE
Cosmos 841 Rocket 3.4 23:33:51 10° NNW 23:38:58 83° WSW 23:44:06 10° S
ARIANE 5 R/B 2.4 23:31:33 10° W 23:41:32 51° S 23:42:10 45° SSE
deb Olympus 4.4 23:29:17 10° WSW 23:42:47 41° S 23:44:19 32° SE
USA 229 DEB 4.0 23:37:47 10° NNW 23:45:42 88° WSW 23:53:43 10° SSE
USA 229 4.0 23:37:53 10° NNW 23:45:48 89° WSW 23:53:50 10° SSE
Cosmos 2285 Rocket 4.3 23:41:35 10° N 23:47:03 42° ENE 23:47:03 42° ENE
Cosmos 2322 3.9 23:43:10 10° S 23:48:01 48° SE 23:48:01 48° SE
Fermi 4.2 23:50:07 10° WNW 23:53:53 56° SW 23:53:53 56° SW
Landsat 5 4.2 23:50:58 10° N 23:55:14 55° WNW 23:59:22 10° SSW
